STARLINK-34256, 64249

Orbit data source: Space-Track

STARLINK-34256, 64249 is a payload satellite owned by SpaceX/Seattle (US) in LEO that was launched on Tue, 03 Jun 2025 UTC via an FALCON 9 launch vehicle from the Air Force Eastern Test Range (AFETR). Payload-class satellites include a variety of spacecraft equipped with specific instruments for various scientific and technological missions. These include communications satellites like Starlink; space stations such as the ISS; scientific satellites like the Hubble; Earth observation satellites from companies like Planet Labs, Umbra, and HawkEye 360; GPS; miniature CubeSats for education and research; and military/defense satellites.

Loading next visibility...
Identifier
64249, 2025-119S
Orbit
LEO
Country
Flag of USUS
Related business
Manufacturer
SpaceX/Seattle
Mission
Operational Commercial Communications
Bus & Motor
STARLINK V2MO, Unknown motor
Mass
575 kg wet, ~530 kg dry
Launch date (UTC)
2025-06-03 (1 year ago)
Launch vehicle
FALCON 9
Launch site
Air Force Eastern Test Range (AFETR)
Object type
Payload
Rocket body
Debris
Shape & HBR
Box + 2 Pan, 17.7 m
Radar Cross Section
36.964 m², Large (>1 m²)

Expand to show TLE details & history
Last TLE update: 18 hours ago

TLE from 18 hours ago
0 STARLINK-34256
1 64249U 25119S   26171.09849453  .00013542  00000-0  50044-3 0  9993
2 64249  43.0053  88.5033 0001544 276.2897  83.7778 15.27599603 59836
Epoch: 2026-06-20T02:21Z
TLE epoch observation values (Epoch: 2026-06-20T02:21:49.927Z)
Latitude
-0.00007°
Longitude
144.7272°
Altitude
482.652 km
Speed
7.626 km/s
True Right ascension
05h 54m 00s
True Declination
0° 00' 00"
Sunlit
Object was in daylight at epoch
Visualization orbit readout
Latitude
Unknown
Longitude
Unknown
Altitude
Unknown
Speed
Unknown
Apparent Right ascension
Unknown
Apparent Declination
Unknown
Sunlit
N/A
Visualization observer readout
Local Sidereal Time
07:12:22
Azimuth
Unknown
Elevation
Unknown
Doppler factor
Unknown
Orbital elements
Apogee altitude
485.994 km
Perigee altitude
483.875 km
Semi-major axis
6,863.072 km
Eccentricity
0.00015
Inclination
43.0053°
RAAN
88.5033°
Arg. of periapsis
276.2897°
True anomaly
83.79539°
Mean anomaly
83.7778°
Eccentric anomaly
83.78659°
Mean motion
3.81738 °/min
Orbital period
94.31 mins
BSTAR
0.00050044
Loading maneuver chart data...
Computing Atmospheric mass density...
Loading historical data...
Loading historical data...
Loading historical data...
Loading historical data...
Loading historical data...
Loading historical data...
Loading historical data...

Documentation

Showing up to 5 results
|